SL-24 R/B, 40541

Orbit data source: Space-Track

SL-24 R/B, 40541 is space debris in SSO originally from a launch on Wed, 25 Mar 2015 UTC launched from the Orenburg, Russia (OREN). Debris objects in space refer to the collection of defunct objects orbiting the Earth. Examples of debris include non-operational satellites, rocket bodies, and fragments generated from explosions, collisions, or faulty payload assembly.

Loading next visibility...
Identifier
40541, 2015-014C
Orbit
SSO
Country
Flag of CISCIS
Related business
Manufacturer
Yuzhnoe
Mission
Spacecraft
Bus & Motor
15A18-BR, Unknown motor
Mass
~1,000 kg wet, ~1,000 kg dry
Launch date (UTC)
2015-03-25 (10 years ago)
Launch vehicle
Unknown
Launch site
Orenburg, Russia (OREN)
Object type
Payload
Rocket body
Debris
Shape & HBR
Cyl, 1.5 m
Radar Cross Section
10.603 m², Large (>1 m²)

Expand to show TLE details & history
Last TLE update: 12 hours ago

TLE from 12 hours ago
0 SL-24 R/B
1 40541U 15014C   25261.06724071  .00000334  00000-0  93116-4 0  9992
2 40541  97.3569 130.1153 0610113 290.2715  63.3886 13.77508485526327
Epoch: 2025-09-18T01:36Z
TLE epoch observation values (Epoch: 2025-09-18T01:36:49.597Z)
Latitude
-0.00005°
Longitude
108.67449°
Altitude
797.478 km
Speed
7.545 km/s
True Right ascension
08h 40m 27s
True Declination
0° 00' 00"
Sunlit
Object was in daylight at epoch
Visualization orbit readout
Latitude
Unknown
Longitude
Unknown
Altitude
Unknown
Speed
Unknown
Apparent Right ascension
Unknown
Apparent Declination
Unknown
Sunlit
N/A
Visualization observer readout
Local Sidereal Time
06:14:18
Azimuth
Unknown
Elevation
Unknown
Doppler factor
Unknown
Orbital elements
Apogee altitude
1,418.19 km
Perigee altitude
521.566 km
Semi-major axis
7,348.015 km
Eccentricity
0.06101
Inclination
97.3569°
RAAN
130.1153°
Arg. of periapsis
290.2715°
True anomaly
69.84635°
Mean anomaly
63.3886°
Eccentric anomaly
66.59671°
Mean motion
3.44578 °/min
Orbital period
104.48 mins
BSTAR
0.000093116
Loading maneuver chart data...
Computing Atmospheric mass density...
Loading historical data...
Loading historical data...
Loading historical data...
Loading historical data...
Loading historical data...
Loading historical data...
Loading historical data...
Other satellites on launch #14 in the year 2015 (2015-03-25 UTC)

Documentation

Showing up to 5 results
|